SHIJIAN-29B (SJ-29B)

Last updated on Tue Sep 22 2026 00:03:16 GMT+0000 (Coordinated Universal Time)

1 67403U 25315C 26264.59206762 -.00000072 00000+0 00000+0 0 9991 2 67403 3.6344 92.7716 0006945 87.8449 106.4984 1.00269879 2655
UTC large
Height (km)
Speed (km/s)
/
Latitude / Longitude
Inclination (degrees)
Orbital Period (minutes)
Azimuth
Elevation
Range (km)
Doppler Factor

Next 0 passes for location: London (51.5072 / 0.1276)

No passes found over London.
SHIJIAN-29B (SJ-29B)